Powrót do katalogu

FENGYUN 1C DEB

AktywnySSO
NORAD 31736·DEBRIS·🇨🇳 China

Wystrzelony May 10, 1999 z Taiyuan Satellite Launch Center

Loading…

Następne Przeloty (najbliższe 24 godziny)

TLE

Starzejące sięSource: Space-Track

Epoka: Sep 9, 2026, 05:42 UTC

1 31736U 99025CEK 26252.23772977  .00000134  00000-0  92559-4 0  9998
2 31736  98.6869 251.5647 0011722 184.8229 175.2834 14.14326776678883

Śledź FENGYUN 1C DEB w czasie rzeczywistym z AllMySat

Download on the App Store